Location: St. Louis
(38.6270°N, 90.1994°W)
Time: 06:46:28
(UTC-06:00)

A-11 Canister half - Pass Details

Date: 13 December 2021
Orbit: 1524 x 1684 km, 47.3° (Epoch: 17 January)

Event Time Altitude Azimuth Distance (km) Brightness Sun altitude
Rises 06:03:43 0° 300° (WNW) 4,926 - -12.6°
Reaches altitude 10° 06:07:04 10° 294° (WNW) 3,923 - -12.0°
Exits shadow 06:08:13 14° 292° (WNW) 3,595 10.2 -11.8°
Maximum altitude 06:16:25 46° 226° (SW) 2,088 9.5 -10.3°
Drops below altitude 10° 06:25:29 10° 157° (SSE) 3,799 11.8 -8.7°
Sets 06:28:42 0° 151° (SSE) 4,760 12.5 -8.1°
